Powrót do katalogu

METEOR 2-5 DEB

AktywnyPO
NORAD 38272·DEBRIS·🇷🇺 Russia

Wystrzelony Oct 31, 1979 z Plesetsk Cosmodrome

Loading…

Następne Przeloty (najbliższe 24 godziny)

TLE

ŚwieżeSource: Space-Track

Epoka: Sep 12, 2026, 04:15 UTC

1 38272U 79095BS  26255.17740127  .00004549  00000-0  13576-2 0  9997
2 38272  81.1958  44.8059 0027627 138.1024  36.3977 14.42679386673460

Śledź METEOR 2-5 DEB w czasie rzeczywistym z AllMySat

Download on the App Store